Location: Gleizolles
(44.4833°N, 6.7667°E)
Time: 21:32:54
(UTC+00:00)

Explorer 7 - Pass Details

Date: 25 June 2024
Orbit: 465 x 619 km, 50.3° (Epoch: 19 July)

Event Time Altitude Azimuth Distance (km) Brightness Sun altitude
Rises 09:50:24 0° 244° (WSW) 2,723 10.2 59.9°
Reaches altitude 10° 09:52:42 10° 245° (WSW) 1,803 9.4 60.2°
Maximum altitude 09:56:48 82° 333° (NNW) 532 7.8 60.8°
Drops below altitude 10° 10:00:42 10° 62° (ENE) 1,715 9.6 61.3°
Sets 10:02:50 0° 63° (ENE) 2,577 10.4 61.6°
